CDT,Max TemperatureF,Mean TemperatureF,Min TemperatureF,Max Dew PointF,MeanDew PointF,Min DewpointF,Max Humidity, Mean Humidity, Min Humidity, Max Sea Level PressureIn, Mean Sea Level PressureIn, Min Sea Level PressureIn, Max VisibilityMiles, Mean VisibilityMiles, Min VisibilityMiles, Max Wind SpeedMPH, Mean Wind SpeedMPH, Max Gust SpeedMPH,PrecipitationIn, CloudCover, Events, WindDirDegrees
2012-10-1,66,59,54,49,46,45,77,63,48,29.85,29.80,29.77,10,10,10,13,7,,0.00,0,,15
2012-10-2,73,60,48,56,49,44,86,68,44,29.88,29.83,29.78,10,10,10,14,7,18,0.01,3,Rain,349
2012-10-3,75,67,59,58,54,48,90,70,38,30.04,29.96,29.88,10,10,10,10,4,,0.01,7,Rain,211
2012-10-4,82,68,54,58,53,45,100,71,39,30.20,30.10,30.06,10,9,2,17,6,25,0.00,3,,292
2012-10-5,53,47,41,45,42,36,93,85,71,30.26,30.21,30.17,10,8,2,14,8,17,0.55,7,Rain-Thunderstorm,353
2012-10-6,50,42,37,36,33,29,89,68,48,30.27,30.24,30.21,10,10,10,15,7,,0.00,1,,321
2012-10-7,54,46,37,37,31,24,93,62,31,30.30,30.23,30.17,10,10,8,12,5,21,0.00,1,,300
2012-10-8,61,46,30,37,32,28,100,79,33,30.22,30.17,30.06,10,6,0,16,2,24,0.00,0,Fog,199
2012-10-9,68,52,35,45,41,34,97,67,37,30.06,29.99,29.90,10,10,9,22,5,29,0.00,2,Rain,203
2012-10-10,57,48,37,43,34,25,97,68,30,30.29,30.20,30.05,10,9,2,15,7,17,0.02,1,Rain,299
2012-10-11,66,50,35,51,38,33,100,69,39,30.24,30.20,30.12,10,9,2,16,4,18,0.00,3,Rain,164
2012-10-12,64,54,46,52,46,37,88,72,53,30.38,30.27,30.20,10,10,9,16,7,22,0.00,3,,53
2012-10-13,79,64,50,63,57,47,94,79,58,30.19,30.02,29.82,10,8,5,17,9,24,0.02,6,Thunderstorm,160
2012-10-14,73,63,53,65,58,47,94,81,53,29.94,29.74,29.63,10,8,2,31,14,48,0.73,6,Rain,229
2012-10-15,70,58,46,50,45,42,93,70,38,30.02,29.96,29.93,10,10,5,9,5,,0.00,0,,270
2012-10-16,82,64,46,53,48,44,93,60,31,29.94,29.74,29.59,10,10,9,16,8,23,0.00,0,,155
2012-10-17,66,60,54,61,55,47,93,79,52,29.62,29.49,29.35,10,9,2,29,13,40,0.29,6,Rain-Thunderstorm,215
2012-10-18,62,54,48,48,37,31,83,56,32,29.60,29.58,29.55,10,10,10,26,11,36,0.01,4,Rain,250
2012-10-19,53,50,46,45,43,41,93,80,69,29.79,29.65,29.53,10,9,2,20,14,29,0.04,8,Rain,265
2012-10-20,64,56,48,46,44,43,86,74,50,29.92,29.86,29.78,10,10,9,9,6,,0.00,5,,258
2012-10-21,78,62,46,62,52,44,93,73,48,29.95,29.90,29.86,10,10,9,10,7,,0.00,1,,113
2012-10-22,73,68,64,64,61,57,88,80,66,29.94,29.91,29.89,10,10,2,13,7,,0.09,6,Rain-Thunderstorm,136
2012-10-23,75,68,61,65,62,59,94,82,68,29.96,29.90,29.83,10,9,5,10,7,,0.10,4,Rain,161
2012-10-24,84,70,59,65,61,56,90,72,51,29.96,29.90,29.84,10,10,9,17,9,22,0.00,2,,157
2012-10-25,82,64,46,62,53,40,93,77,51,30.14,29.90,29.75,10,9,2,25,12,33,0.44,5,Rain,246
2012-10-26,51,44,37,36,31,29,75,61,48,30.36,30.30,30.19,10,10,10,17,12,25,0.00,3,,354
2012-10-27,51,42,34,33,29,27,76,63,46,30.35,30.29,30.24,10,10,10,14,11,20,0.00,0,,360
2012-10-28,52,43,34,33,30,28,79,65,48,30.29,30.26,30.23,10,10,9,15,9,18,0.00,1,,2
2012-10-29,55,45,36,35,28,21,73,56,28,30.34,30.24,30.13,10,10,10,12,7,16,0.00,0,,354
2012-10-30,57,47,37,31,27,24,70,50,30,30.12,29.98,29.89,10,10,10,18,10,26,0.00,0,,310
2012-10-31,55,46,34,31,24,14,76,50,19,29.99,29.96,29.93,10,10,10,17,9,24,0.00,0,,302